Flag for Canada Weather past 2 weeks in Riverview, New Brunswick, Canada

Now
63 °F

Clear.


Feels Like: 63 °F
Forecast: 59 / 82 °F
Wind: 6 mph from Southwest

Location: Moncton

Current Time: Aug 1, 2015 at 3:24:38 AM

Latest Report: Aug 1, 2015 at 2:00 AM


Visibility: 15 mi

Pressure: 29.67 "Hg

Humidity: 94%

Dew point: 61 °F

Location of RiverviewLocation

Historic Weather in Riverview — Graph

°F

Riverview temperature yesterday

Maximum temperature yesterday: 84 °F (at 4:00 PM)
Minimum temperature yesterday: 66 °F (at 3:49 AM)
Average temperature yesterday: 73 °F

Past Weeks' High & Low Weather Summary

 TemperatureHumidityPressure
High84 °F (Jul 31, 4:00 PM)100% (Jul 19, 8:48 AM)30.09 "Hg (Jul 19, 8:48 AM)
Low48 °F (Jul 17, 5:00 AM)38% (Jul 17, 2:00 PM)29.53 "Hg (Jul 22, 1:00 PM)
Average63 °F85%29.85 "Hg
* Reported Jul 17 2:00 AM — Aug 1 2:00 AM, Riverview, Weather by CustomWeather, © 2015

Note: Actual official high and low records may vary slightly from our data, if they occured in-between our weather recording intervals... More about our weather records

Advertising

Riverview weather history for previous 24 hours

 ConditionsComfort  
Time TempWeatherWind HumidityBarometerVisibility
2:00 AM
Sat, Aug 1
63 °FClear.6 mph94%29.67 "Hg15 mi
1:00 AM64 °FClear.8 mph88%29.67 "Hg15 mi
12:00 AM66 °FClear.8 mph83%29.66 "Hg15 mi
11:00 PM
Fri, Jul 31
66 °FClear.8 mph88%29.65 "Hg15 mi
10:00 PM70 °FPassing clouds.7 mph83%29.64 "Hg15 mi
9:00 PM73 °FPassing clouds.7 mph74%29.62 "Hg15 mi
8:00 PM79 °FPassing clouds.9 mph61%29.60 "Hg15 mi
7:00 PM81 °FScattered clouds.14 mph54%29.59 "Hg15 mi
6:00 PM84 °FPassing clouds.15 mph48%29.58 "Hg15 mi
5:00 PM84 °FScattered clouds.14 mph51%29.58 "Hg15 mi
4:00 PM84 °FPassing clouds.13 mph55%29.59 "Hg15 mi
3:00 PM82 °FPassing clouds.16 mph62%29.60 "Hg15 mi
2:00 PM79 °FScattered clouds.18 mph70%29.62 "Hg15 mi
1:00 PM77 °FScattered clouds.16 mph74%29.63 "Hg15 mi
12:00 PM75 °FPartly sunny.16 mph78%29.63 "Hg15 mi
11:49 AM73 °FPartly sunny.13 mph83%29.63 "Hg15 mi
11:00 AM73 °FBroken clouds.14 mph83%29.64 "Hg15 mi
10:00 AM70 °FOvercast.14 mph88%29.64 "Hg15 mi
9:00 AM70 °FLow clouds.8 mph94%29.64 "Hg15 mi
8:00 AM68 °FLow clouds.9 mph94%29.65 "Hg8 mi
7:00 AM68 °FMostly cloudy.9 mph94%29.65 "Hg7 mi
6:52 AM66 °FMostly cloudy.9 mph100%29.65 "Hg7 mi
6:00 AM66 °FMostly cloudy.12 mph100%29.66 "Hg8 mi
5:00 AM66 °FSprinkles. Overcast.9 mph94%29.66 "Hg15 mi
4:04 AM66 °FThunderstorms. Mostly cloudy.3 mph94%29.69 "Hg10 mi
3:49 AM66 °FThunderstorms. Overcast.5 mph94%29.71 "Hg6 mi
3:00 AM68 °FMostly cloudy.9 mph83%29.70 "Hg15 mi
Weather by CustomWeather, © 2015

See weather overviewHow to use our weather pages